Palmdale, CA

12:50 AM PDT on July 28, 2017 (GMT -0700)
Palmdale Af Plant 42

Weather History for KPMD - February, 2014

Change the Weather History Date:

Sunday, February 9, 2014

  Actual Average Record
Temperature  
Mean Temperature 57 °F 48 °F  
Max Temperature 73 °F 61 °F 79 °F (1996)
Min Temperature 41 °F 34 °F 21 °F (1964)
Degree Days  
Heating Degree Days 8 17  
Month to date heating degree days 158 163  
Since 1 July heating degree days 1749 1947  
Cooling Degree Days 0 0  
Month to date cooling degree days 0 0  
Year to date cooling degree days 0 0  
Growing Degree Days 8 (Base 50)    
Moisture  
Dew Point 37 °F    
Average Humidity 48    
Maximum Humidity 76    
Minimum Humidity 20    
Precipitation  
Precipitation 0.00 in 0.07 in 1.16 in (1978)
Month to date precipitation T 0.49  
Year to date precipitation T 2.06  
Since 1 July precipitation 2.07  
Snow  
Snow 0.00 in - 0.00 in (1974)
Month to date snowfall 0.0  
Since 1 July snowfall 0.0  
Snow Depth 0.00 in    
Sea Level Pressure  
Sea Level Pressure 30.09 in    
Wind  
Wind Speed 11 mph (WSW)    
Max Wind Speed 31 mph    
Max Gust Speed 36 mph    
Visibility 10 miles    
Events      
T = Trace of Precipitation, MM = Missing Value Source: NWS Daily Summary

Daily Weather History Graph

Daily Weather History Graph

Search for Another Location

Airport or City:

Trip Planner

Search our weather history database for the weather conditions in past years. The results will help you decide how hot, cold, wet, or windy it might be!

Date:

Astronomy

Feb. 09, 2014 Rise Set
Actual Time 6:43 AM PST 5:29 PM PST
Civil Twilight 6:17 AM PST 5:55 PM PST
Nautical Twilight 5:47 AM PST 6:25 PM PST
Astronomical Twilight 5:18 AM PST 6:55 PM PST
Moon 1:17 PM PST (2/9) 2:48 AM PST (2/9)
Length of Visible Light 11h 38m
Length of Day
10h 46m
Waxing Gibbous, 78% of the Moon is Illuminated
Feb 9
Waxing Gibbous
Feb 14
Full
Feb 22
Last Quarter
Mar 1
New
Mar 8
First Quarter

Hourly Weather History & Observations

Time (PST) Temp. Dew Point Humidity Pressure Visibility Wind Dir Wind Speed Gust Speed Precip Events Conditions
12:53 AM 52.0 °F 39.0 °F 61% 30.14 in 10.0 mi WSW 11.5 mph - N/A   Clear
1:53 AM 51.1 °F 39.0 °F 63% 30.12 in 10.0 mi SW 10.4 mph - N/A   Clear
2:53 AM 46.9 °F 39.0 °F 74% 30.12 in 10.0 mi Variable 4.6 mph - N/A   Clear
3:53 AM 50.0 °F 37.9 °F 63% 30.11 in 10.0 mi SW 5.8 mph - N/A   Clear
4:53 AM 50.0 °F 37.9 °F 63% 30.11 in 10.0 mi SW 9.2 mph - N/A   Clear
5:53 AM 44.1 °F 36.0 °F 73% 30.12 in 10.0 mi Calm Calm - N/A   Clear
6:53 AM 45.0 °F 36.0 °F 71% 30.13 in 10.0 mi Calm Calm - N/A   Clear
7:53 AM 48.0 °F 39.9 °F 74% 30.13 in 10.0 mi SW 4.6 mph - N/A   Clear
8:53 AM 57.0 °F 37.9 °F 49% 30.12 in 10.0 mi SW 12.7 mph - N/A   Clear
9:53 AM 62.1 °F 35.1 °F 37% 30.11 in 10.0 mi NNW 5.8 mph - N/A   Clear
10:53 AM 64.0 °F 34.0 °F 33% 30.11 in 10.0 mi WNW 5.8 mph - N/A   Clear
11:53 AM 68.0 °F 26.1 °F 21% 30.08 in 10.0 mi West 9.2 mph - N/A   Clear
12:53 PM 70.0 °F 28.9 °F 22% 30.04 in 10.0 mi WSW 12.7 mph - N/A   Clear
1:53 PM 72.0 °F 28.9 °F 20% 30.00 in 10.0 mi WSW 17.3 mph - N/A   Clear
2:53 PM 68.0 °F 36.0 °F 31% 30.04 in 10.0 mi WNW 25.3 mph 35.7 mph N/A   Clear
3:53 PM 64.9 °F 39.9 °F 40% 30.03 in 10.0 mi WSW 12.7 mph - N/A   Clear
4:53 PM 62.1 °F 39.9 °F 44% 30.04 in 10.0 mi SW 12.7 mph - N/A   Clear
5:53 PM 57.9 °F 41.0 °F 53% 30.08 in 10.0 mi West 6.9 mph - N/A   Clear
6:53 PM 55.9 °F 44.1 °F 64% 30.11 in 10.0 mi West 21.9 mph - N/A   Clear
7:53 PM 55.0 °F 44.1 °F 67% 30.10 in 10.0 mi West 18.4 mph - N/A   Clear
8:53 PM 55.0 °F 43.0 °F 64% 30.12 in 10.0 mi West 23.0 mph 33.4 mph N/A   Clear
9:53 PM 55.0 °F 41.0 °F 59% 30.09 in 10.0 mi West 17.3 mph 21.9 mph N/A   Clear
10:53 PM 54.0 °F 37.9 °F 55% 30.09 in 10.0 mi WSW 8.1 mph - N/A   Clear
11:53 PM 57.9 °F 30.9 °F 36% 30.08 in 10.0 mi WNW 3.5 mph - N/A   Clear